Location: Newark
(7.1028°S, 35.3258°W)
Time: 00:59:21
(UTC+00:00)

deb Explorer IX - Pass Details

Date: 25 February 2020
Orbit: 547 x 1100 km, 38.8° (Epoch: 06 April)

Event Time Altitude Azimuth Distance (km) Brightness Sun altitude
Exits shadow 05:51:23 24° 170° (S) 1,990 ? -38.3°
Maximum altitude 05:53:09 27° 146° (SE) 1,845 ? -37.9°
Drops below altitude 10° 05:58:29 10° 90° (E) 2,648 ? -36.6°
Sets 06:01:21 0° 78° (ENE) 3,496 ? -35.9°
